This is the latest recevied weather packets stored in our database for station/object SV9TNF-56. If no packets are shown the sender has not sent any weather packets the latest 10 day(s).
| Time | Temp. | Humidity | Pressure | Rain* | Wind** | Luminosity | Snow |
|---|---|---|---|---|---|---|---|
| 1788335619 | 26.11° C | 59% | 1011.9 hPa | 0 mm | 14.75 m/s, 126° | - | - |
| 1788335320 | 26.11° C | 60% | 1011.9 hPa | 0 mm | 15.2 m/s, 77° | - | - |
| 1788335019 | 26.11° C | 59% | 1012.2 hPa | 0 mm | 8.05 m/s, 104° | - | - |
| 1788334719 | 26.11° C | 61% | 1011.9 hPa | 0 mm | 5.81 m/s, 142° | - | - |
| 1788334419 | 26.11° C | 60% | 1012.2 hPa | 0 mm | 8.49 m/s, 138° | - | - |
| 1788334119 | 25.56° C | 60% | 1011.9 hPa | 0 mm | 9.83 m/s, 138° | - | - |
| 1788333819 | 26.11° C | 58% | 1011.9 hPa | 0 mm | 12.52 m/s, 110° | - | - |
| 1788333519 | 25.56° C | 59% | 1011.9 hPa | 0 mm | 14.75 m/s, 231° | - | - |
| 1788333219 | 25.56° C | 60% | 1011.9 hPa | 0 mm | 11.18 m/s, 138° | - | - |
| 1788332919 | 25.56° C | 60% | 1011.9 hPa | 0 mm | 9.83 m/s, 194° | - | - |
| 1788332619 | 26.11° C | 61% | 1011.9 hPa | 0 mm | 6.71 m/s, 103° | - | - |
| 1788332318 | 26.11° C | 58% | 1012.2 hPa | 0 mm | 7.15 m/s, 102° | - | - |
| 1788332019 | 26.11° C | 59% | 1011.9 hPa | 0 mm | 17.88 m/s, 171° | - | - |
| 1788331718 | 25.56° C | 58% | 1011.9 hPa | 0 mm | 16.54 m/s, 138° | - | - |
| 1788331418 | 25.56° C | 57% | 1011.9 hPa | 0 mm | 6.26 m/s, 156° | - | - |
| 1788331118 | 25.56° C | 59% | 1011.9 hPa | 0 mm | 7.15 m/s, 212° | - | - |
| 1788330818 | 25.56° C | 61% | 1011.9 hPa | 0 mm | 12.52 m/s, 186° | - | - |
| 1788330518 | 26.11° C | 62% | 1011.9 hPa | 0 mm | 7.15 m/s, 176° | - | - |
| 1788330218 | 25.56° C | 62% | 1011.9 hPa | 0 mm | 22.8 m/s, 59° | - | - |
| 1788329918 | 25.56° C | 62% | 1011.9 hPa | 0 mm | 19.67 m/s, 84° | - | - |
| 1788329618 | 25.56° C | 61% | 1011.5 hPa | 0 mm | 8.05 m/s, 292° | - | - |
| 1788329317 | 25.56° C | 60% | 1011.9 hPa | 0 mm | 11.18 m/s, 228° | - | - |
| 1788329017 | 25.56° C | 56% | 1011.9 hPa | 0 mm | 13.86 m/s, 120° | - | - |
| 1788328717 | 25.56° C | 57% | 1011.5 hPa | 0 mm | 9.83 m/s, 122° | - | - |
| 1788328417 | 25.56° C | 59% | 1011.5 hPa | 0 mm | 5.81 m/s, 186° | - | - |
* Rain latest hour (hover to see other rain measurements)
** Current wind speed in m/s (hover to see current wind gust speed)